Flag for Germany Weather past 2 weeks in Bad Kreuznach, Rhineland-Palatinate, Germany

Now
41 °F

Passing clouds.


Feels Like: 38 °F
Forecast: 31 / 53 °F
Wind: 5 mph from East

Location: Wiesbaden Airport

Current Time: Mar 6, 2015 at 9:22:08 PM

Latest Report: Mar 6, 2015 at 8:58 PM


Visibility: N/A

Pressure: 30.60 "Hg

Humidity: 70%

Dew point: 32 °F

Location of Bad KreuznachLocation

Historic Weather in Bad Kreuznach — Graph

°F

Bad Kreuznach temperature yesterday

Maximum temperature yesterday: 46 °F (at 2:58 PM)
Minimum temperature yesterday: 34 °F (at 11:50 PM)
Average temperature yesterday: 40 °F

Past Weeks' High & Low Weather Summary

 TemperatureHumidityPressure
High52 °F (Feb 20, 1:58 PM)100% (Feb 22, 5:58 AM)30.68 "Hg (Feb 22, 5:58 AM)
Low29 °F (Feb 28, 6:58 AM)43% (Mar 2, 3:58 PM)29.47 "Hg (Feb 21, 6:58 AM)
Average40 °F81%30.00 "Hg
* Reported Feb 19 7:58 PM — Mar 6 7:58 PM, Bad Kreuznach, Weather by CustomWeather, © 2015

Note: Actual official high and low records may vary slightly from our data, if they occured in-between our weather recording intervals... More about our weather records

Advertising

Bad Kreuznach weather history for previous 24 hours

 ConditionsComfort  
Time TempWeatherWind HumidityBarometerVisibility
7:58 PM
Fri, Mar 6
45 °FOvercast.2 mph64%30.60 "HgN/A
6:58 PM45 °FOvercast.3 mph66%30.60 "HgN/A
5:58 PM46 °FOvercast.5 mph62%30.60 "HgN/A
4:58 PM48 °FOvercast.3 mph54%30.58 "HgN/A
3:58 PM48 °FOvercast.1 mph54%30.60 "HgN/A
2:58 PM46 °FOvercast.5 mph62%30.61 "HgN/A
1:58 PM47 °FMore clouds than sun.6 mph60%30.63 "HgN/A
12:58 PM46 °FMore clouds than sun.5 mph65%30.65 "HgN/A
11:58 AM45 °FSunny.5 mph71%30.66 "HgN/A
10:58 AM41 °FPassing clouds.2 mph81%30.68 "HgN/A
9:58 AM39 °FSunny.2 mph81%30.68 "HgN/A
8:58 AM36 °FSunny.5 mph89%30.68 "HgN/A
7:58 AM32 °FSunny.3 mph100%30.68 "HgN/A
6:58 AM34 °FOvercast.5 mph93%30.67 "HgN/A
5:58 AM32 °FPassing clouds.2 mph100%30.66 "HgN/A
4:58 AM33 °FClear.5 mph95%30.66 "HgN/A
4:03 AM32 °FPassing clouds.3 mph100%30.62 "HgN/A
3:58 AM32 °FPassing clouds.3 mph93%30.65 "HgN/A
2:58 AM32 °FClear.2 mph93%30.65 "HgN/A
1:58 AM34 °FPassing clouds.2 mph87%30.66 "HgN/A
12:58 AM36 °FOvercast.No wind81%30.66 "HgN/A
11:58 PM
Thu, Mar 5
34 °FPassing clouds.1 mph86%30.66 "HgN/A
11:50 PM34 °FPassing clouds.No wind87%30.64 "HgN/A
10:58 PM36 °FClear.7 mph81%30.65 "HgN/A
9:58 PM36 °FPassing clouds.3 mph82%30.64 "HgN/A
Weather by CustomWeather, © 2015

See weather overviewHow to use our weather pages